Weather in Norfolk

United States     36°50′46″N   76°17′00″W
temp.,
°C
wind,
m/s
gust,
m/s
humid.,
%
clouds,
%
prec.,
mm/h
press.,
hPa
HPBL,
m
26 may, thu
thu2623:00+16ene41092100 0.1 1024571
02:00+17ne3793100 0.1 1023349
05:00+17ne2696100 0.1 1023264
08:00+18ene259598 0.2 1023220
11:00+24se247868 0.1 1022783
14:00+26sse346499 0.2 10211165
17:00+25sse356899 0.0 1020819
20:00+21se37857 0.0 1019232
27 may, fri
fri2723:00+20s310917 0.0 1019285
02:00+19s3119411 0.0 1017342
05:00+19s31198100 0.0 1016362
08:00+23s4118797 0.0 1017618
11:00+26ssw61074100 0.6 10151143
14:00+24s51085100 2.2 1013825
17:00+23s51289100 2.8 1012785
20:00+22s61390100 4.8 1011815
28 may, sat
sat2823:00+21ssw51495100 7.1 1010731
02:00+20ssw41297100 8.3 1009515
05:00+19s4109699 1.2 1009306
08:00+20wsw489094 1.3 1009391
11:00+24w47575 0.1 10101184
14:00+27wsw57430 0.1 10101990
17:00+27wsw574273 0.0 10102497
20:00+22n35591 0.0 1012273
29 may, sun
sun2923:00+19nw11700 0.0 101415
02:00+18nw22770 0.0 101538
05:00+17nw11814 0.0 101615
08:00+20nnw1270100 0.0 1018236
11:00+25nnw12515 0.0 10191137
14:00+29ene12425 0.0 10181791
17:00+27ese44485 0.0 10171198
20:00+21se36705 0.0 1019207
30 may, mon
mon3023:00+19sse38785 0.0 1020214
02:00+18s38845 0.0 1020195
05:00+18ssw27895 0.0 1021159
08:00+22sw36715 0.0 1022264
11:00+28wsw455190 0.0 10221047
14:00+31wsw444140 0.0 10201836
17:00+32wsw33415 0.0 10181865
20:00+27s35628 0.0 1018113